Home   Weather   Talladega   Past weeks
Flag for USA

Past Weather in Talladega, Alabama, USA — Yesterday and Last 2 Weeks

Now
61 °F

Clear.


Feels Like: 61 °F
Forecast: 89 / 64 °F
Wind: No wind

Location: Talladega Municipal Airport

Current Time: May 22, 2019 at 5:53:12 am

Latest Report: May 22, 2019 at 4:55 am


Visibility: 10 mi

Pressure: 30.03 "Hg

Humidity: 97%

Dew Point: 60 °F

Location of TalladegaLocation

Past Weather in Talladega — Graph

°F

Talladega Temperature Yesterday

Maximum temperature yesterday: 90 °F (at 2:55 pm)
Minimum temperature yesterday: 63 °F (at 5:55 am)
Average temperature yesterday: 77 °F

High & Low Weather Summary for the Past Weeks

 TemperatureHumidityPressure
High90 °F (May 21, 2:55 pm)100% (May 7, 4:35 am)30.16 "Hg (May 7, 4:35 am)
Low48 °F (May 15, 5:35 am)38% (May 19, 12:35 pm)29.76 "Hg (May 12, 5:15 pm)
Average71 °F78%29.99 "Hg
* Reported May 7 4:15 am — May 22 4:35 am, Talladega. Weather by CustomWeather, © 2019

Note: Actual official high and low records may vary slightly from our data, if they occured in-between our weather recording intervals... More about our weather records

Advertising

Talladega Weather History for the Previous 24 Hours

Scroll right to see more
 ConditionsComfort  
Time TempWeatherWind HumidityBarometerVisibility
4:35 am
Wed, May 22
64 °FClear.No wind93%30.03 "Hg10 mi
4:15 am63 °FClear.No wind97%30.03 "Hg10 mi
3:55 am64 °FClear.3 mph95%30.03 "Hg10 mi
3:35 am64 °FClear.No wind96%30.02 "Hg10 mi
3:15 am64 °FClear.No wind96%30.01 "Hg10 mi
2:35 am64 °FClear.No wind95%30.00 "Hg10 mi
2:15 am65 °FClear.No wind95%29.99 "Hg10 mi
1:55 am65 °FClear.No wind92%29.98 "Hg10 mi
1:35 am66 °FClear.No wind93%29.98 "Hg10 mi
1:15 am66 °FClear.3 mph92%29.98 "Hg10 mi
12:55 am67 °FClear.No wind90%29.98 "Hg10 mi
12:35 am68 °FThundershowers. Clear.No wind88%29.97 "Hg10 mi
12:15 am66 °FClear.No wind93%29.97 "Hg10 mi
11:55 pm
Tue, May 21
67 °FClear.3 mph91%29.97 "Hg10 mi
11:35 pm68 °FClear.No wind87%29.97 "Hg10 mi
11:15 pm69 °FClear.No wind86%29.97 "Hg10 mi
10:55 pm71 °FClear.No wind79%29.97 "Hg10 mi
10:35 pm74 °FClear.No wind72%29.96 "Hg10 mi
10:15 pm72 °FClear.No wind78%29.95 "Hg10 mi
9:55 pm72 °FClear.No wind78%29.94 "Hg10 mi
9:35 pm75 °FClear.3 mph69%29.94 "Hg10 mi
9:15 pm76 °FClear.3 mph69%29.93 "Hg10 mi
8:35 pm78 °FClear.3 mph61%29.93 "Hg10 mi
8:15 pm79 °FClear.3 mph62%29.92 "Hg10 mi
7:55 pm81 °FClear.3 mph56%29.92 "Hg10 mi
7:35 pm82 °FSunny.6 mph54%29.91 "Hg10 mi
7:15 pm83 °FSunny.5 mph56%29.91 "Hg10 mi
6:55 pm85 °FSunny.5 mph55%29.91 "Hg10 mi
6:35 pm85 °FSunny.5 mph55%29.91 "Hg10 mi
6:15 pm84 °FSunny.5 mph55%29.91 "Hg10 mi
5:55 pm86 °FScattered clouds.6 mph50%29.91 "Hg10 mi
5:35 pm89 °FScattered clouds.9 mph48%29.91 "Hg10 mi
5:15 pm89 °FSunny.8 mph47%29.91 "Hg10 mi
4:35 pm88 °FScattered clouds.7 mph46%29.91 "Hg10 mi
4:15 pm89 °FSunny.7 mph45%29.91 "Hg10 mi
3:55 pm90 °FScattered clouds.9 mph43%29.92 "Hg10 mi
3:35 pm90 °FScattered clouds.10 mph44%29.92 "Hg10 mi
3:15 pm90 °FSunny.7 mph42%29.93 "Hg10 mi
2:55 pm90 °FSunny.8 mph41%29.93 "Hg10 mi
2:35 pm90 °FSunny.10 mph43%29.93 "Hg10 mi
2:15 pm90 °FSunny.10 mph42%29.93 "Hg10 mi
1:55 pm90 °FScattered clouds.8 mph44%29.93 "Hg10 mi
1:35 pm89 °FScattered clouds.8 mph43%29.93 "Hg10 mi
1:15 pm89 °FScattered clouds.12 mph45%29.93 "Hg10 mi
12:55 pm87 °FBroken clouds.9 mph49%29.94 "Hg10 mi
12:35 pm88 °FScattered clouds.12 mph47%29.95 "Hg10 mi
12:15 pm88 °FScattered clouds.10 mph49%29.95 "Hg10 mi
11:55 am88 °FScattered clouds.9 mph49%29.95 "Hg10 mi
11:35 am87 °FSunny.12 mph49%29.95 "Hg10 mi
11:15 am87 °FSunny.10 mph51%29.96 "Hg10 mi
10:55 am86 °FSunny.9 mph53%29.96 "Hg10 mi
10:35 am85 °FSunny.7 mph59%29.97 "Hg10 mi
10:15 am84 °FSunny.8 mph58%29.97 "Hg10 mi
9:55 am83 °FSunny.5 mph62%29.97 "Hg10 mi
9:35 am82 °FSunny.5 mph67%29.98 "Hg10 mi
9:15 am80 °FSunny.No wind69%29.98 "Hg10 mi
8:35 am76 °FSunny.3 mph75%29.98 "Hg10 mi
8:15 am73 °FSunny.No wind81%29.98 "Hg10 mi
7:55 am71 °FSunny.No wind86%29.97 "Hg10 mi
7:35 am69 °FSunny.No wind91%29.97 "Hg10 mi
6:55 am66 °FSunny.No wind95%29.97 "Hg10 mi
6:35 am65 °FSunny.No wind97%29.97 "Hg7 mi
6:15 am64 °FSunny.No wind99%29.96 "Hg10 mi
5:55 am63 °FSunny.No wind98%29.96 "Hg7 mi
5:35 am64 °FClear.No wind98%29.96 "Hg7 mi
5:15 am64 °FClear.No wind100%29.95 "Hg10 mi
Weather by CustomWeather, © 2019

See weather overview